User: anonymous   Login
Location: Unspecified
(0.0000°N, 0.0000°E)
Time: 23:34:00
(UTC+00:00)
Language:

Delta IV Demo - Orbit

View from above orbital plane
View from above orbital plane
View from above satellite
View from above satellite

Ground track
Ground track

The orbit data is extracted from the following two-line orbital elements,

1 28500U 04050A   18112.61181368 0.00000000  00000-0  00000-0 0    04
2 28500  16.2084  31.3575 2776839 191.3988 160.7320  1.41307656    05
Epoch (UTC): 22 April 2018 14:41:00
Eccentricity: 0.2776839
inclination: 16.2084°
perigee height: 17851 km
apogee height: 36481 km
right ascension of ascending node: 31.3575°
argument of perigee: 191.3988°
revolutions per day: 1.41307656
mean anomaly at epoch: 160.7320°
orbit number at epoch: 0

The dashed part of the orbit path shows where the satellite is in the earth's shadow,  

DLR